Location: Blazny
(46.0612°N, 84.4033°W)
Time: 19:53:36
(UTC-04:00)

Envisat - Pass Details

Date: 23 September 2024
Orbit: 762 x 764 km, 98.3° (Epoch: 11 October)

Event Time Altitude Azimuth Distance (km) Brightness Sun altitude
Rises 05:04:24 0° 12° (NNE) 3,237 6.8 -24.6°
Reaches altitude 10° 05:06:43 10° 10° (N) 2,307 5.9 -24.2°
Maximum altitude 05:11:47 75° 287° (WNW) 794 2.9 -23.4°
Enters shadow 05:12:37 60° 226° (SW) 870 2.9 -23.3°
